Location: Squirrel Cove
(50.1074°N, 124.9139°W)
Time: 18:39:05
(UTC-08:00)

Envisat - Pass Details

Date: 26 November 2022
Orbit: 763 x 765 km, 98.2° (Epoch: 05 February)

Event Time Altitude Azimuth Distance (km) Brightness Sun altitude
Rises 05:40:47 0° 8° (N) 3,247 6.2 -20.1°
Reaches altitude 10° 05:43:15 10° 359° (N) 2,316 5.4 -19.7°
Enters shadow 05:47:39 34° 300° (WNW) 1,240 3.6 -19.0°
